Location: Ladysmith
(45.4630°N, 91.1040°W)
Time: 05:21:37
(UTC-05:00)

Amateur Radio Satellites - All Passes

Search period start: 23 September 2014 04:51
Search period end: 24 September 2014 04:51
Location: Ladysmith, 45.4630°N, 91.1040°W

Satellite Date Start Highest point End Downlink Frequencies (MHz)
Time Altitude Azimuth
SO-50 23 Sep 05:10:05 05:14:08 26° 40° (NE) 05:18:12 436.795 FM
ITAMSAT 1 23 Sep 05:23:20 05:25:36 13° 305° (NW) 05:27:52 435.822 SSB
Uosat F 23 Sep 05:25:58 05:30:58 63° 102° (ESE) 05:35:57 435.120 FM
Uribyol 2 23 Sep 05:27:03 05:28:44 12° 306° (NW) 05:30:24 436.500 FM
JAS-2 23 Sep 05:29:30 05:33:24 17° 90° (E) 05:37:32 435.800 - 435.900 CW/SSB, 435.910 FM
JAS-1B 23 Sep 05:32:10 05:34:35 13° 309° (NW) 05:36:59 435.800 - 435.900 CW/SSB
Gurwin Techsat 1B 23 Sep 05:32:51 05:36:36 20° 300° (WNW) 05:40:20 435.225 FM
Hamsat 23 Sep 05:42:41 05:43:37 11° 87° (E) 05:44:32 145.90 MHz
OPAL 23 Sep 05:49:18 05:53:47 29° 263° (W) 05:58:19 ?
TMSAT-1 23 Sep 06:08:16 06:10:52 14° 304° (NW) 06:13:28 436.925 FM
AO-7 23 Sep 06:08:48 06:17:05 78° 292° (WNW) 06:25:21 29.400 - 29.500 MHz
KITSAT 1 23 Sep 06:10:32 06:15:48 19° 259° (WSW) 06:21:03 435.175 FM
ISS 23 Sep 06:14:11 06:17:17 35° 15° (NNE) 06:20:23 145.800 FM
UOSAT-12 23 Sep 06:27:16 06:30:30 18° 33° (NNE) 06:33:42 437.025 FM, 437.400 FM
STRAND 1 23 Sep 06:35:44 06:40:41 56° 71° (ENE) 06:45:41 ?
SO-50 23 Sep 06:50:18 06:55:02 58° 239° (WSW) 06:59:48 436.795 FM
RS-15 23 Sep 07:02:56 07:12:51 37° 332° (NNW) 07:22:52 29.354 - 29.394 USB, Beacon 29.352 USB
Uosat F 23 Sep 07:05:48 07:09:17 19° 300° (WNW) 07:12:46 435.120 FM
JAS-2 23 Sep 07:12:53 07:19:02 88° 285° (WNW) 07:26:00 435.800 - 435.900 CW/SSB, 435.910 FM
Hamsat 23 Sep 07:15:52 07:20:08 75° 285° (WNW) 07:24:19 145.90 MHz
SO-67 23 Sep 07:40:20 07:43:19 27° 96° (E) 07:46:17 435.3500 MHz FM
ISS 23 Sep 07:50:51 07:54:09 60° 214° (SSW) 07:57:25 145.800 FM
MaSat-1 23 Sep 07:54:57 07:59:53 62° 114° (ESE) 08:04:40 437.345 MHz
AO-7 23 Sep 08:02:55 08:08:39 21° 313° (NW) 08:14:23 29.400 - 29.500 MHz
UOSAT-12 23 Sep 08:06:38 08:11:24 80° 53° (NE) 08:16:05 437.025 FM, 437.400 FM
STRAND 1 23 Sep 08:16:35 08:20:15 20° 268° (W) 08:23:55 ?
HO-68 23 Sep 08:32:59 08:36:29 14° 86° (E) 08:39:59 435.675 MHz FM
JAS-2 23 Sep 08:59:36 09:03:28 18° 302° (WNW) 09:07:36 435.800 - 435.900 CW/SSB, 435.910 FM
SO-67 23 Sep 09:13:37 09:16:12 20° 292° (WNW) 09:18:46 435.3500 MHz FM
RS-15 23 Sep 09:20:15 09:29:18 28° 7° (N) 09:38:31 29.354 - 29.394 USB, Beacon 29.352 USB
UKube-1 23 Sep 09:25:39 09:26:59 11° 89° (E) 09:28:20 145.840 MHz, 145.915 MHz
MaSat-1 23 Sep 09:33:03 09:36:57 23° 312° (NW) 09:40:42 437.345 MHz
UOSAT-12 23 Sep 09:48:27 09:50:55 14° 251° (WSW) 09:53:21 437.025 FM, 437.400 FM
HO-68 23 Sep 10:18:08 10:25:21 76° 105° (ESE) 10:32:32 435.675 MHz FM
Sapphire 23 Sep 10:24:06 10:25:42 11° 101° (ESE) 10:27:19 437.095 MHz 1200 baud AX-25 AFSK
Oscar 11 23 Sep 10:38:35 10:42:50 51° 100° (E) 10:47:03 145.825 FM, Beacon 2401.500 USB
FUNcube-1 23 Sep 10:39:44 10:43:30 24° 93° (E) 10:47:12 145.950 - 145.970 MHz USB
PCSat 23 Sep 10:47:57 10:51:54 21° 107° (ESE) 10:55:52 145.825 MHz
UKube-1 23 Sep 10:59:21 11:03:43 76° 286° (WNW) 11:08:04 145.840 MHz, 145.915 MHz
ZACube-1 23 Sep 11:22:27 11:27:04 65° 101° (E) 11:31:36 437.345 MHz
RS-15 23 Sep 11:34:25 11:45:04 50° 39° (NE) 11:56:04 29.354 - 29.394 USB, Beacon 29.352 USB
Oscar 19 23 Sep 11:55:37 11:56:59 11° 54° (NE) 11:58:21 437.125 CW, 437.150 USB
Sapphire 23 Sep 12:02:48 12:08:11 78° 119° (ESE) 12:13:38 437.095 MHz 1200 baud AX-25 AFSK
HO-68 23 Sep 12:06:47 12:12:24 26° 305° (NW) 12:18:01 435.675 MHz FM
FUNcube-1 23 Sep 12:15:43 12:20:00 39° 291° (WNW) 12:24:14 145.950 - 145.970 MHz USB
Oscar 11 23 Sep 12:15:44 12:18:39 18° 297° (WNW) 12:21:33 145.825 FM, Beacon 2401.500 USB
PCSat 23 Sep 12:29:27 12:34:49 64° 305° (NW) 12:40:14 145.825 MHz
Oscar 16 23 Sep 12:32:01 12:36:01 23° 62° (ENE) 12:40:02 437.025 USB, Beacon 2401.1428
JAS-1B 23 Sep 12:37:05 12:42:51 24° 59° (ENE) 12:47:59 435.800 - 435.900 CW/SSB
ZACube-1 23 Sep 13:00:05 13:02:57 16° 299° (WNW) 13:05:47 437.345 MHz
ITAMSAT 1 23 Sep 13:23:40 13:28:01 28° 64° (ENE) 13:32:23 435.822 SSB
Uribyol 2 23 Sep 13:26:34 13:31:05 31° 65° (ENE) 13:35:37 436.500 FM
Oscar 19 23 Sep 13:30:13 13:35:22 68° 73° (ENE) 13:40:33 437.125 CW, 437.150 USB
AO-7 23 Sep 13:32:18 13:35:07 12° 36° (NE) 13:37:56 29.400 - 29.500 MHz
Gurwin Techsat 1B 23 Sep 13:37:23 13:41:06 20° 60° (ENE) 13:44:50 435.225 FM
RS-15 23 Sep 13:47:02 13:57:51 62° 244° (WSW) 14:09:08 29.354 - 29.394 USB, Beacon 29.352 USB
Sapphire 23 Sep 13:48:00 13:52:14 23° 320° (NW) 13:56:29 437.095 MHz 1200 baud AX-25 AFSK
AO-Echo 23 Sep 13:49:34 13:54:06 49° 71° (ENE) 13:58:38 ?
AO-27 23 Sep 13:58:56 14:03:59 56° 71° (ENE) 14:09:04 436.795 MHz FM
Oscar 16 23 Sep 14:09:57 14:15:01 54° 260° (W) 14:20:08 437.025 USB, Beacon 2401.1428
TMSAT-1 23 Sep 14:10:47 14:15:12 28° 64° (ENE) 14:19:37 436.925 FM
PCSat 23 Sep 14:16:05 14:19:21 16° 327° (NNW) 14:22:37 145.825 MHz
JAS-1B 23 Sep 14:24:43 14:33:00 80° 255° (WSW) 14:39:53 435.800 - 435.900 CW/SSB
ITAMSAT 1 23 Sep 15:02:27 15:07:19 42° 262° (W) 15:12:15 435.822 SSB
Uosat F 23 Sep 15:05:14 15:08:15 16° 58° (ENE) 15:11:18 435.120 FM
Uribyol 2 23 Sep 15:05:41 15:10:28 37° 263° (W) 15:15:17 436.500 FM
Oscar 19 23 Sep 15:11:55 15:15:12 17° 270° (W) 15:18:31 437.125 CW, 437.150 USB
Gurwin Techsat 1B 23 Sep 15:15:18 15:20:34 66° 258° (WSW) 15:25:52 435.225 FM
AO-7 23 Sep 15:18:06 15:25:46 44° 59° (ENE) 15:33:26 29.400 - 29.500 MHz
AO-Echo 23 Sep 15:29:48 15:33:10 19° 268° (W) 15:36:33 ?
AO-27 23 Sep 15:40:05 15:43:52 20° 268° (W) 15:47:40 436.795 MHz FM
TMSAT-1 23 Sep 15:49:52 15:54:54 44° 262° (W) 15:59:59 436.925 FM
RS-15 23 Sep 16:03:15 16:07:48 13° 265° (W) 16:12:26 29.354 - 29.394 USB, Beacon 29.352 USB
MaSat-1 23 Sep 16:09:51 16:12:50 21° 47° (NE) 16:15:30 437.345 MHz
Saudisat 1A 23 Sep 16:17:34 16:21:39 38° 118° (ESE) 16:25:45 436.775 MHz
JAS-1B 23 Sep 16:19:59 16:24:18 15° 271° (W) 16:28:18 435.800 - 435.900 CW/SSB
Hamsat 23 Sep 16:38:12 16:39:53 12° 60° (ENE) 16:41:35 145.90 MHz
Uosat F 23 Sep 16:41:28 16:46:27 75° 257° (WSW) 16:51:29 435.120 FM
AO-7 23 Sep 17:10:30 17:18:28 49° 259° (W) 17:26:29 29.400 - 29.500 MHz
JAS-2 23 Sep 17:28:37 17:33:33 47° 69° (ENE) 17:38:35 435.800 - 435.900 CW/SSB, 435.910 FM
MaSat-1 23 Sep 17:46:17 17:49:38 33° 251° (WSW) 17:52:33 437.345 MHz
OPAL 23 Sep 17:56:07 18:01:15 62° 104° (ESE) 18:06:17 ?
Saudisat 1A 23 Sep 17:57:23 18:01:18 31° 317° (NW) 18:05:15 436.775 MHz
Hamsat 23 Sep 18:10:52 18:15:13 82° 257° (WSW) 18:19:35 145.90 MHz
SO-67 23 Sep 18:16:27 18:18:21 14° 65° (ENE) 18:20:15 435.3500 MHz FM
KITSAT 1 23 Sep 18:43:45 18:51:28 51° 114° (ESE) 18:59:12 435.175 FM
STRAND 1 23 Sep 18:45:20 18:48:27 16° 90° (E) 18:51:33 ?
HO-68 23 Sep 19:04:59 19:09:08 17° 48° (NE) 19:13:18 435.675 MHz FM
Sapphire 23 Sep 19:05:56 19:10:03 21° 39° (NE) 19:14:10 437.095 MHz 1200 baud AX-25 AFSK
JAS-2 23 Sep 19:15:01 19:19:01 22° 268° (W) 19:23:04 435.800 - 435.900 CW/SSB, 435.910 FM
PCSat 23 Sep 19:32:11 19:37:01 31° 45° (NE) 19:41:50 145.825 MHz
OPAL 23 Sep 19:35:55 19:39:40 21° 302° (WNW) 19:43:24 ?
SO-67 23 Sep 19:47:47 19:51:03 40° 262° (W) 19:54:20 435.3500 MHz FM
STRAND 1 23 Sep 20:23:02 20:28:09 70° 287° (WNW) 20:33:16 ?
UKube-1 23 Sep 20:23:02 20:25:26 15° 60° (ENE) 20:27:50 145.840 MHz, 145.915 MHz
KITSAT 1 23 Sep 20:39:17 20:47:00 46° 316° (NW) 20:54:45 435.175 FM
HO-68 23 Sep 20:48:33 20:55:38 70° 69° (ENE) 21:02:45 435.675 MHz FM
Sapphire 23 Sep 20:48:43 20:54:11 84° 240° (WSW) 20:59:36 437.095 MHz 1200 baud AX-25 AFSK
SO-50 23 Sep 21:07:51 21:11:38 27° 114° (ESE) 21:15:29 436.795 FM
PCSat 23 Sep 21:15:26 21:20:39 49° 245° (WSW) 21:25:50 145.825 MHz
Oscar 11 23 Sep 21:35:31 21:39:46 53° 72° (ENE) 21:44:02 145.825 FM, Beacon 2401.500 USB
FUNcube-1 23 Sep 21:38:19 21:42:01 26° 65° (ENE) 21:45:47 145.950 - 145.970 MHz USB
UKube-1 23 Sep 21:56:49 22:01:07 66° 258° (WSW) 22:05:28 145.840 MHz, 145.915 MHz
STRAND 1 23 Sep 22:04:57 22:06:25 11° 306° (NW) 22:07:53 ?
ZACube-1 23 Sep 22:20:46 22:25:12 67° 74° (ENE) 22:29:46 437.345 MHz
UOSAT-12 23 Sep 22:22:08 22:24:33 14° 109° (ESE) 22:26:59 437.025 FM, 437.400 FM
Sapphire 23 Sep 22:34:28 22:36:44 13° 258° (WSW) 22:39:00 437.095 MHz 1200 baud AX-25 AFSK
HO-68 23 Sep 22:38:21 22:43:56 24° 268° (W) 22:49:35 435.675 MHz FM
KITSAT 1 23 Sep 22:39:07 22:44:44 20° 343° (NNW) 22:50:22 435.175 FM
SO-50 23 Sep 22:47:42 22:52:00 42° 314° (NW) 22:56:26 436.795 FM
Saudisat 1A 23 Sep 23:03:35 23:05:52 14° 30° (NNE) 23:08:09 436.775 MHz
Oscar 11 23 Sep 23:13:33 23:16:16 16° 269° (W) 23:19:01 145.825 FM, Beacon 2401.500 USB
FUNcube-1 23 Sep 23:14:07 23:18:14 36° 264° (W) 23:22:28 145.950 - 145.970 MHz USB
UOSAT-12 23 Sep 23:59:24 00:04:03 80° 307° (NW) 00:08:48 437.025 FM, 437.400 FM
ZACube-1 23 Sep 23:59:49 00:02:06 14° 272° (W) 00:04:26 437.345 MHz
SO-50 24 Sep 00:32:08 00:33:50 12° 336° (NNW) 00:35:32 436.795 FM
ISS 24 Sep 00:35:59 00:37:41 13° 133° (SE) 00:39:23 145.800 FM
KITSAT 1 24 Sep 00:38:24 00:43:46 19° 13° (NNE) 00:49:07 435.175 FM
Saudisat 1A 24 Sep 00:41:58 00:46:22 61° 51° (NE) 00:50:43 436.775 MHz
Oscar 19 24 Sep 01:40:32 01:44:19 20° 91° (E) 01:48:03 437.125 CW, 437.150 USB
UOSAT-12 24 Sep 01:41:48 01:44:58 18° 328° (NNW) 01:48:10 437.025 FM, 437.400 FM
AO-Echo 24 Sep 01:55:40 01:58:07 14° 89° (E) 02:00:35 ?
RS-15 24 Sep 02:06:28 02:12:48 17° 97° (E) 02:19:04 29.354 - 29.394 USB, Beacon 29.352 USB
JAS-1B 24 Sep 02:08:30 02:12:38 20° 91° (E) 02:16:48 435.800 - 435.900 CW/SSB
ISS 24 Sep 02:10:36 02:13:55 85° 150° (SSE) 02:17:16 145.800 FM
AO-27 24 Sep 02:10:52 02:14:12 17° 90° (E) 02:17:32 436.795 MHz FM
Oscar 16 24 Sep 02:19:23 02:24:22 46° 99° (E) 02:29:18 437.025 USB, Beacon 2401.1428
Saudisat 1A 24 Sep 02:22:35 02:25:29 17° 249° (WSW) 02:28:23 436.775 MHz
KITSAT 1 24 Sep 02:34:13 02:41:46 40° 41° (NE) 02:49:15 435.175 FM
ITAMSAT 1 24 Sep 03:12:39 03:17:49 59° 101° (E) 03:22:58 435.822 SSB
Uribyol 2 24 Sep 03:15:35 03:20:49 66° 102° (ESE) 03:26:00 436.500 FM
Oscar 19 24 Sep 03:18:57 03:24:01 56° 289° (WNW) 03:29:01 437.125 CW, 437.150 USB
Gurwin Techsat 1B 24 Sep 03:29:21 03:34:24 42° 98° (E) 03:39:25 435.225 FM
AO-Echo 24 Sep 03:32:31 03:37:25 77° 286° (WNW) 03:42:27 ?
OPAL 24 Sep 03:36:00 03:39:55 22° 58° (ENE) 03:43:51 ?
ISS 24 Sep 03:47:53 03:50:54 31° 349° (N) 03:53:56 145.800 FM
AO-27 24 Sep 03:49:01 03:54:13 68° 288° (WNW) 03:59:24 436.795 MHz FM
SO-50 24 Sep 03:57:11 03:59:32 13° 27° (NNE) 04:01:53 436.795 FM
JAS-1B 24 Sep 03:58:14 04:03:50 57° 290° (WNW) 04:09:28 435.800 - 435.900 CW/SSB
Oscar 16 24 Sep 03:59:15 04:03:28 26° 297° (WNW) 04:07:41 437.025 USB, Beacon 2401.1428
TMSAT-1 24 Sep 04:03:05 04:08:22 62° 101° (ESE) 04:13:37 436.925 FM
RS-15 24 Sep 04:12:07 04:23:04 73° 119° (ESE) 04:33:55 29.354 - 29.394 USB, Beacon 29.352 USB
KITSAT 1 24 Sep 04:29:39 04:37:35 62° 244° (WSW) 04:45:28 435.175 FM
